#�ϑ�����,���ϕ���,���ϕ���,�ő啗��,�ő啗����������,�ő�u�ԕ���,�ő�u�ԕ�����������
#(�N����),(m/s)   ,(16����),(m/s)   ,(16����)        ,(m/s)       ,(16����)            
2017/11/19 0:01,3.5,16,3.5,16,7,15
2017/11/19 0:02,3.8,16,3.8,16,11.8,15
2017/11/19 0:03,4.1,16,4.1,16,12.2,16
2017/11/19 0:04,4.8,16,4.8,16,14.9,15
2017/11/19 0:05,5.1,16,5.1,16,16.9,15
2017/11/19 0:06,5.6,16,5.6,16,14.1,14
2017/11/19 0:07,6.1,16,6.1,16,12.5,1
2017/11/19 0:08,6.5,16,6.5,16,14.9,15
2017/11/19 0:09,7.3,16,7.3,16,18,16
2017/11/19 0:10,7.7,16,7.7,16,11.3,16
2017/11/19 0:11,8.4,16,8.4,16,18.9,16
2017/11/19 0:12,8.6,16,8.7,16,12.5,1
2017/11/19 0:13,8.5,16,8.6,16,9,16
2017/11/19 0:14,8.3,16,8.4,16,12.2,16
2017/11/19 0:15,8,16,8.2,16,8.9,16
2017/11/19 0:16,7.5,16,8,16,8.4,1
2017/11/19 0:17,7.2,16,7.5,16,7.5,1
2017/11/19 0:18,6.8,16,7.1,16,6.7,15
2017/11/19 0:19,6.3,16,6.7,16,7.8,16
2017/11/19 0:20,6,16,6.2,16,6.7,16
2017/11/19 0:21,5.3,16,5.9,16,9.4,16
2017/11/19 0:22,5.1,16,5.3,16,7.2,15
2017/11/19 0:23,4.9,16,5.1,16,6.3,15
2017/11/19 0:24,4.5,16,4.8,16,7.8,16
2017/11/19 0:25,4.6,16,4.6,16,7.9,16
2017/11/19 0:26,4.4,16,4.5,16,6.9,16
2017/11/19 0:27,4.3,16,4.4,16,6.8,16
2017/11/19 0:28,4.6,16,4.6,16,10.3,15
2017/11/19 0:29,4.7,16,4.7,16,9.2,16
2017/11/19 0:30,5,16,5,16,12.1,15
2017/11/19 0:31,5,16,5.1,16,9.5,1
2017/11/19 0:32,5.3,16,5.3,16,14.4,16
2017/11/19 0:33,5.8,16,5.8,16,13.1,16
2017/11/19 0:34,5.8,16,5.8,16,8.9,16
2017/11/19 0:35,5.6,16,5.8,16,5.8,15
2017/11/19 0:36,5.6,16,5.6,16,6.2,15
2017/11/19 0:37,5.6,16,5.6,16,7,14
2017/11/19 0:38,5.3,15,5.6,16,5.4,16
2017/11/19 0:39,5,15,5.2,16,7.4,15
2017/11/19 0:40,4.8,16,4.9,16,9.2,16
2017/11/19 0:41,4.9,16,4.9,16,13.6,16
2017/11/19 0:42,4.7,16,5.1,16,13,16
2017/11/19 0:43,4.4,16,4.6,16,9.3,16
2017/11/19 0:44,4.5,16,4.5,16,9.4,16
2017/11/19 0:45,4.8,16,4.8,16,12.4,15
2017/11/19 0:46,5,16,5,16,10.5,16
2017/11/19 0:47,5.1,16,5.1,16,10.9,14
2017/11/19 0:48,5.6,16,5.6,16,12.7,15
2017/11/19 0:49,6,16,6,16,12.8,1
2017/11/19 0:50,6,16,6,16,10.9,15
2017/11/19 0:51,6.1,16,6.2,16,12.2,16
2017/11/19 0:52,6.3,15,6.3,15,13.5,16
2017/11/19 0:53,6.4,15,6.4,15,8.3,16
2017/11/19 0:54,6.4,15,6.4,15,14,16
2017/11/19 0:55,6,16,6.4,15,11.7,16
2017/11/19 0:56,6.1,16,6.1,15,7,16
2017/11/19 0:57,6.2,16,6.2,15,11.9,16
2017/11/19 0:58,5.9,16,6.1,15,10.7,16
2017/11/19 0:59,5.6,16,5.9,15,8.9,16
2017/11/19 1:00,5.6,16,5.7,15,9.2,16
2017/11/19 1:01,5.5,16,5.6,15,12.1,15
2017/11/19 1:02,5.4,16,5.5,15,11.4,16
2017/11/19 1:03,5.6,16,5.6,15,11.6,16
2017/11/19 1:04,5.8,16,6,15,12.7,16
2017/11/19 1:05,5.8,16,5.8,16,6.9,1
2017/11/19 1:06,5.9,16,5.9,16,9,15
2017/11/19 1:07,5.7,16,5.9,16,8.1,15
2017/11/19 1:08,5.7,16,5.8,16,8.5,16
2017/11/19 1:09,5.5,16,5.6,16,5.8,16
2017/11/19 1:10,5.3,16,5.5,16,5.5,11
2017/11/19 1:11,4.8,16,5.3,16,3.6,15
2017/11/19 1:12,4.3,16,4.7,16,5.4,16
2017/11/19 1:13,4.3,16,4.3,16,9.3,16
2017/11/19 1:14,4,16,4.2,16,8.6,16
2017/11/19 1:15,4.2,16,4.2,16,11.5,16
2017/11/19 1:16,4.3,16,4.4,16,11.4,15
2017/11/19 1:17,4.3,16,4.3,16,7.7,1
2017/11/19 1:18,4.4,16,4.4,16,13.5,16
2017/11/19 1:19,4.4,16,4.5,16,7.8,15
2017/11/19 1:20,4.6,16,4.7,16,8.9,1
2017/11/19 1:21,5,16,5,16,8.1,15
2017/11/19 1:22,5.2,16,5.3,16,8.1,2
2017/11/19 1:23,4.7,16,5.2,16,2.7,2
2017/11/19 1:24,4.3,16,4.6,16,4.9,12
2017/11/19 1:25,4.1,15,4.3,16,4.4,11
2017/11/19 1:26,3.6,15,4,16,2.5,14
2017/11/19 1:27,3.5,15,3.6,16,5.1,2
2017/11/19 1:28,3.1,15,3.4,16,6.1,15
2017/11/19 1:29,3.2,15,3.2,16,9.2,16
2017/11/19 1:30,3.2,15,3.3,16,10.7,15
2017/11/19 1:31,3.3,15,3.3,16,8.5,15
2017/11/19 1:32,3.3,15,3.3,16,8.5,16
2017/11/19 1:33,3.6,15,3.6,16,7.1,15
2017/11/19 1:34,3.8,15,3.8,16,9.3,1
2017/11/19 1:35,3.9,15,3.9,15,8.6,15
2017/11/19 1:36,4.5,16,4.5,16,16.7,16
2017/11/19 1:37,5,16,5,16,12.4,15
2017/11/19 1:38,5.2,16,5.2,16,9,15
2017/11/19 1:39,5.3,16,5.3,16,10.8,15
2017/11/19 1:40,5.5,16,5.5,16,16.3,14
2017/11/19 1:41,5.7,16,5.7,16,11.1,16
2017/11/19 1:42,5.9,16,5.9,16,12.4,14
2017/11/19 1:43,6.2,16,6.2,16,11.4,14
2017/11/19 1:44,6.3,16,6.4,16,9.4,14
2017/11/19 1:45,6.6,16,6.6,16,10.6,16
2017/11/19 1:46,6.4,16,6.6,16,8.6,16
2017/11/19 1:47,6.1,16,6.3,16,9.1,15
2017/11/19 1:48,6.1,16,6.2,16,7.8,16
2017/11/19 1:49,6.1,16,6.2,16,6.8,16
2017/11/19 1:50,5.8,16,6,16,6.4,16
2017/11/19 1:51,5.5,16,5.8,16,6.1,16
2017/11/19 1:52,5.1,16,5.5,16,7.5,16
2017/11/19 1:53,4.9,16,5,16,9.8,16
2017/11/19 1:54,5.1,16,5.1,16,11.5,15
2017/11/19 1:55,4.9,16,5.1,16,7.7,16
2017/11/19 1:56,5,16,5,16,9,14
2017/11/19 1:57,5,16,5,16,9.2,14
2017/11/19 1:58,5,16,5,16,7.6,15
2017/11/19 1:59,5.2,15,5.2,16,8.9,15
2017/11/19 2:00,5.3,15,5.3,16,8.9,15
2017/11/19 2:01,5.4,15,5.4,16,9.2,15
2017/11/19 2:02,5.4,15,5.5,15,6,16
2017/11/19 2:03,5.2,15,5.4,15,6.7,15
2017/11/19 2:04,4.7,15,5.1,15,5.4,1
2017/11/19 2:05,4.6,15,4.7,15,7.8,16
2017/11/19 2:06,4.5,15,4.6,15,7.4,16
2017/11/19 2:07,4.4,15,4.5,15,9.4,16
2017/11/19 2:08,4.4,15,4.4,15,10.1,15
2017/11/19 2:09,4.1,15,4.3,15,7.7,16
2017/11/19 2:10,3.9,15,4,15,6.3,16
2017/11/19 2:11,3.9,15,3.9,15,6.9,15
2017/11/19 2:12,4,15,4,15,8.5,15
2017/11/19 2:13,4.1,15,4.1,15,6.4,15
2017/11/19 2:14,4.3,15,4.3,15,7,15
2017/11/19 2:15,4.5,15,4.5,15,6.8,14
2017/11/19 2:16,4.5,15,4.5,15,7.4,1
2017/11/19 2:17,4.4,15,4.5,15,7.2,16
2017/11/19 2:18,4.4,15,4.5,15,5.8,15
2017/11/19 2:19,4.4,15,4.4,15,7.1,15
2017/11/19 2:20,4.5,15,4.5,15,7.8,15
2017/11/19 2:21,4.7,15,4.7,15,7.2,16
2017/11/19 2:22,4.7,15,4.7,15,8.2,15
2017/11/19 2:23,4.8,15,4.8,15,8.9,15
2017/11/19 2:24,4.7,15,4.8,15,8.9,15
2017/11/19 2:25,4.8,15,4.8,15,8.1,15
2017/11/19 2:26,4.6,15,4.8,15,5,16
2017/11/19 2:27,4.6,15,4.6,15,7.5,14
2017/11/19 2:28,4.7,15,4.7,15,7.8,16
2017/11/19 2:29,4.6,15,4.7,15,6.3,16
2017/11/19 2:30,4.4,15,4.6,15,5.5,16
2017/11/19 2:31,4.1,15,4.4,15,4.1,1
2017/11/19 2:32,4,15,4.1,15,9.5,16
2017/11/19 2:33,3.8,15,4,15,6.1,16
2017/11/19 2:34,3.6,15,3.7,15,3.5,16
2017/11/19 2:35,3.3,15,3.6,15,3.7,15
2017/11/19 2:36,3.4,15,3.4,15,4.9,15
2017/11/19 2:37,3.2,15,3.4,15,5.7,1
2017/11/19 2:38,2.9,15,3.2,15,3.6,12
2017/11/19 2:39,2.9,15,2.9,15,8.5,1
2017/11/19 2:40,2.9,16,3,15,5.7,16
2017/11/19 2:41,3,15,3,15,6,16
2017/11/19 2:42,2.8,15,3,15,3.2,1
2017/11/19 2:43,2.7,15,2.7,15,6,14
2017/11/19 2:44,2.8,15,2.8,15,5.4,1
2017/11/19 2:45,2.8,15,2.8,15,4.2,15
2017/11/19 2:46,2.6,15,2.8,15,3.2,1
2017/11/19 2:47,2.6,15,2.6,15,7,15
2017/11/19 2:48,3,16,3,16,8.1,16
2017/11/19 2:49,3.1,15,3.1,16,6.4,13
2017/11/19 2:50,3,15,3.1,16,7.2,13
2017/11/19 2:51,2.8,15,3,16,2.1,15
2017/11/19 2:52,3,15,3,16,6.2,15
2017/11/19 2:53,3.1,15,3.1,16,6,14
2017/11/19 2:54,3.1,15,3.1,16,6.9,15
2017/11/19 2:55,3.1,15,3.1,16,4.9,15
2017/11/19 2:56,3.2,15,3.2,15,4.3,11
2017/11/19 2:57,3.1,14,3.2,15,3.5,12
2017/11/19 2:58,2.8,14,3.1,15,3.6,14
2017/11/19 2:59,2.6,14,2.8,15,2.6,12
2017/11/19 3:00,2.5,14,2.5,15,3.9,14
2017/11/19 3:01,2.7,14,2.7,15,3.6,15
2017/11/19 3:02,2.6,14,2.7,15,5.1,14
2017/11/19 3:03,2.5,14,2.7,15,4.5,15
2017/11/19 3:04,2.4,14,2.5,15,4.7,15
2017/11/19 3:05,2.3,14,2.4,15,3.5,1
2017/11/19 3:06,2.2,14,2.3,15,5.7,1
2017/11/19 3:07,2.4,14,2.4,14,7.1,16
2017/11/19 3:08,2.8,15,2.8,14,9.7,16
2017/11/19 3:09,3.1,15,3.1,15,8.3,15
2017/11/19 3:10,3.1,15,3.1,15,5.2,16
2017/11/19 3:11,3.2,15,3.2,15,5.6,14
2017/11/19 3:12,3.2,15,3.2,15,6.1,16
2017/11/19 3:13,3.1,15,3.2,15,3,3
2017/11/19 3:14,3,15,3,15,3,3
2017/11/19 3:15,3.1,15,3.1,15,5.6,13
2017/11/19 3:16,3.2,15,3.2,15,5.5,14
2017/11/19 3:17,2.9,15,3.2,15,3.7,13
2017/11/19 3:18,2.4,16,2.9,15,1.8,2
2017/11/19 3:19,2.1,16,2.4,15,1.8,16
2017/11/19 3:20,1.9,16,2.1,15,2.4,2
2017/11/19 3:21,1.7,16,1.9,15,2.1,16
2017/11/19 3:22,1.5,16,1.7,15,3.5,16
2017/11/19 3:23,1.6,16,1.6,15,2.5,15
2017/11/19 3:24,1.4,15,1.6,15,1.1,12
2017/11/19 3:25,1.4,16,1.4,15,2.7,4
2017/11/19 3:26,1.2,1,1.4,15,3.1,3
2017/11/19 3:27,1.1,1,1.1,15,1.6,1
2017/11/19 3:28,1.2,16,1.2,16,2.5,1
2017/11/19 3:29,1.2,16,1.2,16,2.7,12
2017/11/19 3:30,1.3,14,1.3,16,3.2,8
2017/11/19 3:31,1.3,13,1.4,16,3.6,11
2017/11/19 3:32,1.4,4,1.4,16,5,3
2017/11/19 3:33,1.7,3,1.7,3,6.8,1
2017/11/19 3:34,2,1,2,2,9.2,1
2017/11/19 3:35,2.5,16,2.5,16,19,1
2017/11/19 3:36,3.4,16,3.4,16,16,16
2017/11/19 3:37,3.9,16,3.9,16,11.1,15
2017/11/19 3:38,4,15,4,15,5.7,15
2017/11/19 3:39,4,15,4,15,2.9,16
2017/11/19 3:40,4,16,4,15,5.6,1
2017/11/19 3:41,4.3,16,4.3,16,7.6,15
2017/11/19 3:42,4.6,16,4.6,16,8.9,15
2017/11/19 3:43,4.5,15,4.6,16,7.6,15
2017/11/19 3:44,4.3,15,4.4,16,5.2,14
2017/11/19 3:45,3.8,15,4.4,16,3.2,11
2017/11/19 3:46,3,15,3.7,16,2.9,1
2017/11/19 3:47,2.6,15,2.9,16,3.9,1
2017/11/19 3:48,2.7,15,2.7,16,6.2,13
2017/11/19 3:49,3,15,3,16,5.7,12
2017/11/19 3:50,2.9,14,3,16,3.5,12
2017/11/19 3:51,2.8,14,2.9,16,3.8,15
2017/11/19 3:52,2.6,14,2.7,16,6.7,16
2017/11/19 3:53,2.7,14,2.7,15,8.1,14
2017/11/19 3:54,2.8,14,2.8,15,6.5,15
2017/11/19 3:55,2.9,14,2.9,15,5.2,13
2017/11/19 3:56,3,14,3,15,3,12
2017/11/19 3:57,2.9,14,3,15,3,16
2017/11/19 3:58,2.7,14,2.9,15,3,16
2017/11/19 3:59,2.5,14,2.7,15,1.9,12
2017/11/19 4:00,2.4,14,2.5,14,4.1,14
2017/11/19 4:01,2.4,14,2.4,14,5.6,16
2017/11/19 4:02,2.3,14,2.5,14,5.8,16
2017/11/19 4:03,1.9,15,2.2,14,1,16
2017/11/19 4:04,1.6,15,1.9,14,1.9,14
2017/11/19 4:05,1.5,15,1.6,14,3.6,2
2017/11/19 4:06,1.6,16,1.6,14,5.6,1
2017/11/19 4:07,1.6,16,1.7,14,4.3,16
2017/11/19 4:08,1.9,16,1.9,14,8.3,16
2017/11/19 4:09,2,16,2,14,5.8,16
2017/11/19 4:10,1.9,16,2,14,1.6,3
2017/11/19 4:11,1.7,16,1.9,14,2.7,1
2017/11/19 4:12,1.9,16,1.9,14,7,16
2017/11/19 4:13,2.2,16,2.2,1,7.4,1
2017/11/19 4:14,2.7,16,2.7,16,10.7,15
2017/11/19 4:15,3,16,3,16,7.5,15
2017/11/19 4:16,3,16,3.1,16,7.8,15
2017/11/19 4:17,3.1,16,3.1,16,5.4,16
2017/11/19 4:18,3.1,16,3.1,16,6.4,15
2017/11/19 4:19,3.4,16,3.4,16,11,15
2017/11/19 4:20,4,16,4,16,11.4,16
2017/11/19 4:21,4.2,15,4.2,15,5.6,13
2017/11/19 4:22,4.1,15,4.3,15,6.8,14
2017/11/19 4:23,4,15,4,15,8.9,16
2017/11/19 4:24,4.1,15,4.2,15,10.5,16
2017/11/19 4:25,3.9,15,4.1,15,7.6,16
2017/11/19 4:26,3.8,15,3.9,15,4.7,9
2017/11/19 4:27,3.7,14,3.8,15,4.2,9
2017/11/19 4:28,3.7,14,3.7,15,3.6,11
2017/11/19 4:29,3.3,13,3.7,15,3.7,11
2017/11/19 4:30,2.7,13,3.2,15,1.8,3
2017/11/19 4:31,2.6,13,2.7,15,2.5,14
2017/11/19 4:32,2.5,13,2.5,15,3,13
2017/11/19 4:33,2.4,12,2.5,15,6.5,12
2017/11/19 4:34,2.1,11,2.4,15,4.7,12
2017/11/19 4:35,2,11,2,15,3.7,11
2017/11/19 4:36,1.9,11,2,15,3.3,12
2017/11/19 4:37,1.8,12,1.8,14,2,13
2017/11/19 4:38,1.7,12,1.8,14,4.1,13
2017/11/19 4:39,1.6,12,1.7,13,2.9,12
2017/11/19 4:40,1.8,12,1.8,13,3.1,12
2017/11/19 4:41,1.8,12,1.8,13,4.3,1
2017/11/19 4:42,2,12,2,13,6.3,16
2017/11/19 4:43,2.1,12,2.1,12,5.4,12
2017/11/19 4:44,2.1,12,2.1,12,4.1,11
2017/11/19 4:45,2.1,12,2.2,12,3.5,11
2017/11/19 4:46,2.2,12,2.2,12,2.4,11
2017/11/19 4:47,2.2,12,2.2,12,2.5,13
2017/11/19 4:48,2.1,13,2.2,12,2.6,14
2017/11/19 4:49,2.1,13,2.1,12,2.1,15
2017/11/19 4:50,2.1,13,2.1,12,2.2,12
2017/11/19 4:51,2,13,2.1,12,2.2,13
2017/11/19 4:52,1.9,13,2,12,4.4,13
2017/11/19 4:53,1.8,13,1.9,12,4.2,10
2017/11/19 4:54,1.6,13,1.8,12,3,7
2017/11/19 4:55,1.5,13,1.6,12,1.9,1
2017/11/19 4:56,1.4,13,1.5,12,1.6,15
2017/11/19 4:57,1.5,13,1.5,12,6,8
2017/11/19 4:58,1.5,13,1.5,13,3.3,7
2017/11/19 4:59,1.5,13,1.5,13,3.3,6
2017/11/19 5:00,1.5,12,1.5,13,3.6,10
2017/11/19 5:01,1.6,12,1.6,13,4.4,8
2017/11/19 5:02,1.5,11,1.6,13,3.6,12
2017/11/19 5:03,1.3,12,1.5,13,1.4,12
2017/11/19 5:04,1.3,13,1.3,13,1.5,15
2017/11/19 5:05,1.3,12,1.3,12,0.9,8
2017/11/19 5:06,1.3,12,1.3,12,2,13
2017/11/19 5:07,1.4,11,1.4,12,4.9,11
2017/11/19 5:08,1.4,12,1.4,12,2.7,9
2017/11/19 5:09,1.4,12,1.4,12,1.1,11
2017/11/19 5:10,1.3,12,1.4,12,3.2,10
2017/11/19 5:11,1.2,12,1.3,12,3.2,11
2017/11/19 5:12,1.3,12,1.3,11,3.7,9
2017/11/19 5:13,1.4,11,1.4,11,3,10
2017/11/19 5:14,1.3,11,1.4,11,0.9,15
2017/11/19 5:15,1.5,11,1.5,11,2.9,1
2017/11/19 5:16,1.5,11,1.5,11,2.7,16
2017/11/19 5:17,1.3,12,1.5,11,1.5,14
2017/11/19 5:18,1.2,12,1.3,11,1.5,14
2017/11/19 5:19,1.1,12,1.2,11,1,15
2017/11/19 5:20,1,13,1.1,11,0.1,10
2017/11/19 5:21,1,13,1,11,2,13
2017/11/19 5:22,0.9,13,1,11,2,13
2017/11/19 5:23,0.9,13,0.9,11,3.2,12
2017/11/19 5:24,1,13,1,11,1.5,13
2017/11/19 5:25,0.9,13,1,12,1.9,1
2017/11/19 5:26,1,14,1,11,2.4,2
2017/11/19 5:27,1.1,14,1.1,12,3.2,2
2017/11/19 5:28,1.1,14,1.1,12,1.8,14
2017/11/19 5:29,1.2,14,1.2,14,2.9,15
2017/11/19 5:30,1.4,15,1.4,15,2.7,15
2017/11/19 5:31,1.4,15,1.5,15,3.8,13
2017/11/19 5:32,1.5,15,1.5,15,3,1
2017/11/19 5:33,1.5,16,1.5,15,3.5,15
2017/11/19 5:34,1.7,16,1.7,16,5.2,16
2017/11/19 5:35,1.8,16,1.8,16,3,16
2017/11/19 5:36,1.7,15,1.8,16,2.9,13
2017/11/19 5:37,1.6,15,1.7,16,2,1
2017/11/19 5:38,1.7,15,1.7,16,1.9,1
2017/11/19 5:39,1.5,15,1.6,16,1.5,4
2017/11/19 5:40,1.5,16,1.5,16,2.2,16
2017/11/19 5:41,1.5,15,1.5,16,2.4,13
2017/11/19 5:42,1.4,15,1.5,16,1.5,15
2017/11/19 5:43,1.4,15,1.4,16,4.9,15
2017/11/19 5:44,1.5,15,1.5,16,5.7,15
2017/11/19 5:45,1.6,15,1.6,16,4.8,16
2017/11/19 5:46,1.7,16,1.7,15,2.9,15
2017/11/19 5:47,1.9,16,1.9,16,4.4,16
2017/11/19 5:48,2,16,2,16,4.7,16
2017/11/19 5:49,2.2,16,2.2,16,5,16
2017/11/19 5:50,2.3,15,2.3,16,4.4,16
2017/11/19 5:51,2.3,15,2.3,16,2.9,16
2017/11/19 5:52,2.3,15,2.3,16,1.8,14
2017/11/19 5:53,2.1,16,2.3,16,2.4,16
2017/11/19 5:54,2.3,16,2.3,16,11.3,16
2017/11/19 5:55,2.3,15,2.3,16,6.1,14
2017/11/19 5:56,2.4,15,2.4,15,4.2,16
2017/11/19 5:57,2.5,15,2.5,15,6.5,14
2017/11/19 5:58,2.5,15,2.5,15,6.1,15
2017/11/19 5:59,2.6,15,2.6,15,6.4,16
2017/11/19 6:00,2.9,15,2.9,15,10.7,16
2017/11/19 6:01,3,15,3,15,6,1
2017/11/19 6:02,3.3,15,3.3,15,5,11
2017/11/19 6:03,3.3,15,3.3,15,3.3,16
2017/11/19 6:04,3.1,15,3.3,15,4.7,14
2017/11/19 6:05,3.2,15,3.2,15,5.7,14
2017/11/19 6:06,3.2,15,3.2,15,6.3,16
2017/11/19 6:07,3.2,15,3.3,15,6.3,16
2017/11/19 6:08,3.3,15,3.4,15,6.1,16
2017/11/19 6:09,3.3,15,3.3,15,4.1,16
2017/11/19 6:10,3,15,3.3,15,5.4,16
2017/11/19 6:11,3.2,15,3.2,15,6.8,15
2017/11/19 6:12,3.2,16,3.2,15,6.2,1
2017/11/19 6:13,3.4,16,3.4,15,5.2,16
2017/11/19 6:14,3.4,16,3.5,16,5.2,15
2017/11/19 6:15,3.3,16,3.4,16,3.2,14
2017/11/19 6:16,3.3,15,3.3,16,4.2,15
2017/11/19 6:17,3.3,15,3.3,16,6.4,15
2017/11/19 6:18,3.2,15,3.3,16,5.1,14
2017/11/19 6:19,3.3,15,3.3,16,5.2,15
2017/11/19 6:20,3.4,15,3.4,16,5.1,14
2017/11/19 6:21,3.2,15,3.4,16,3.9,13
2017/11/19 6:22,3.1,15,3.2,16,3.2,14
2017/11/19 6:23,2.9,14,3,16,2.4,14
2017/11/19 6:24,2.7,14,2.9,16,2.6,13
2017/11/19 6:25,2.7,14,2.7,15,3.3,15
2017/11/19 6:26,2.6,14,2.6,15,3.3,14
2017/11/19 6:27,2.4,14,2.6,15,3.7,12
2017/11/19 6:28,2.2,14,2.4,15,3,13
2017/11/19 6:29,2,14,2.2,15,2,14
2017/11/19 6:30,1.8,14,2,15,2.5,13
2017/11/19 6:31,1.6,14,1.8,15,0.9,14
2017/11/19 6:32,1.5,14,1.5,15,2.7,13
2017/11/19 6:33,1.6,13,1.6,14,2.7,12
2017/11/19 6:34,1.8,13,1.8,14,4.9,13
2017/11/19 6:35,1.8,13,1.8,15,3.9,13
2017/11/19 6:36,1.7,13,1.8,14,2.5,13
2017/11/19 6:37,1.7,13,1.7,14,3.6,16
2017/11/19 6:38,1.8,13,1.8,14,4.2,16
2017/11/19 6:39,1.8,13,1.8,14,3.7,16
2017/11/19 6:40,2,14,2,14,4.4,16
2017/11/19 6:41,2.3,14,2.3,14,4.8,16
2017/11/19 6:42,2.3,14,2.3,14,3.5,13
2017/11/19 6:43,2.4,14,2.4,14,3.9,13
2017/11/19 6:44,2.2,14,2.4,14,4.1,15
2017/11/19 6:45,2.1,14,2.2,14,1.9,15
2017/11/19 6:46,2.1,15,2.1,14,2.9,15
2017/11/19 6:47,2.2,15,2.2,14,5,15
2017/11/19 6:48,2.2,15,2.2,14,3.6,14
2017/11/19 6:49,2.2,14,2.2,14,2.9,16
2017/11/19 6:50,2,14,2.2,14,1.8,15
2017/11/19 6:51,1.8,14,2,14,1.8,13
2017/11/19 6:52,1.8,14,1.8,14,3.7,15
2017/11/19 6:53,1.7,14,1.8,14,3,13
2017/11/19 6:54,1.7,14,1.7,14,3.6,12
2017/11/19 6:55,1.7,14,1.7,15,1.5,13
2017/11/19 6:56,1.6,14,1.7,15,1,10
2017/11/19 6:57,1.4,14,1.6,15,2.7,12
2017/11/19 6:58,1.3,13,1.4,15,2.7,11
2017/11/19 6:59,1.3,13,1.3,14,1.9,10
2017/11/19 7:00,1.4,12,1.4,14,3.6,10
2017/11/19 7:01,1.5,12,1.5,14,3.1,11
2017/11/19 7:02,1.5,11,1.5,14,2.9,13
2017/11/19 7:03,1.5,11,1.5,14,3.2,12
2017/11/19 7:04,1.5,11,1.5,14,2.6,12
2017/11/19 7:05,1.8,11,1.8,11,5.1,13
2017/11/19 7:06,2.1,11,2.1,11,5.5,11
2017/11/19 7:07,2.2,12,2.2,12,4.5,14
2017/11/19 7:08,2.2,12,2.2,12,4.5,16
2017/11/19 7:09,2.3,12,2.3,12,3.7,10
2017/11/19 7:10,2.4,12,2.4,12,3.5,11
2017/11/19 7:11,2.5,13,2.5,13,6,11
2017/11/19 7:12,2.8,13,2.8,13,6.9,13
2017/11/19 7:13,2.8,13,2.9,13,4.5,14
2017/11/19 7:14,3,13,3,13,4.9,16
2017/11/19 7:15,2.8,14,3,13,5,15
2017/11/19 7:16,2.6,14,2.8,13,1.9,1
2017/11/19 7:17,2.5,14,2.6,13,3.5,16
2017/11/19 7:18,2.5,14,2.6,13,3.8,16
2017/11/19 7:19,2.6,14,2.6,13,3.5,16
2017/11/19 7:20,2.5,15,2.6,13,4.1,16
2017/11/19 7:21,2.4,15,2.5,13,4.4,1
2017/11/19 7:22,2.2,15,2.4,13,4.3,16
2017/11/19 7:23,2.4,15,2.4,13,7.6,13
2017/11/19 7:24,2.6,15,2.6,13,7.9,14
2017/11/19 7:25,2.9,15,2.9,15,7.5,14
2017/11/19 7:26,3.4,15,3.4,15,8.4,14
2017/11/19 7:27,3.6,15,3.6,15,6.3,16
2017/11/19 7:28,3.7,15,3.7,15,4.4,15
2017/11/19 7:29,3.7,15,3.8,15,4.7,1
2017/11/19 7:30,3.8,15,3.8,15,5,16
2017/11/19 7:31,3.9,15,3.9,15,5.5,16
2017/11/19 7:32,4.1,15,4.1,15,6.8,15
2017/11/19 7:33,4.2,15,4.3,15,7.5,16
2017/11/19 7:34,4.2,15,4.3,15,7.2,16
2017/11/19 7:35,4.2,16,4.2,15,7.7,16
2017/11/19 7:36,3.9,16,4.2,15,5.1,16
2017/11/19 7:37,3.8,16,3.9,15,4.5,15
2017/11/19 7:38,3.8,16,3.8,15,5.5,15
2017/11/19 7:39,4,16,4,15,5.2,16
2017/11/19 7:40,4.1,16,4.1,15,6.1,16
2017/11/19 7:41,4.3,16,4.3,15,8.2,1
2017/11/19 7:42,4.3,16,4.3,15,6.3,15
2017/11/19 7:43,4.1,16,4.3,15,5.2,15
2017/11/19 7:44,3.9,16,4.1,16,3.7,15
2017/11/19 7:45,3.7,16,3.8,16,4.4,16
2017/11/19 7:46,3.6,16,3.6,16,4.1,15
2017/11/19 7:47,3.7,15,3.7,16,4.3,15
2017/11/19 7:48,3.6,15,3.7,16,5.5,15
2017/11/19 7:49,3.6,15,3.7,16,5.1,16
2017/11/19 7:50,3.6,15,3.6,16,5.5,16
2017/11/19 7:51,3.4,15,3.6,16,4.9,15
2017/11/19 7:52,3.2,15,3.4,16,5.1,16
2017/11/19 7:53,3.1,15,3.2,16,5.1,14
2017/11/19 7:54,2.9,15,3.1,16,2.4,1
2017/11/19 7:55,2.7,15,2.9,16,1.1,16
2017/11/19 7:56,2.5,15,2.7,16,0.3,8
2017/11/19 7:57,2.2,15,2.4,15,1,10
2017/11/19 7:58,2,14,2.2,15,2.2,9
2017/11/19 7:59,1.8,14,2,15,2.9,9
2017/11/19 8:00,1.6,12,1.8,15,2.5,9
2017/11/19 8:01,1.3,10,1.5,15,2.4,9
2017/11/19 8:02,1.2,10,1.3,15,2.7,10
2017/11/19 8:03,1.1,9,1.2,15,3.2,9
2017/11/19 8:04,1.2,9,1.2,15,2.4,10
2017/11/19 8:05,1.4,9,1.4,15,3.9,10
2017/11/19 8:06,1.5,9,1.5,15,2.5,9
2017/11/19 8:07,1.5,9,1.5,15,2.2,9
2017/11/19 8:08,1.5,9,1.6,14,3.3,9
2017/11/19 8:09,1.5,9,1.5,13,3.6,10
2017/11/19 8:10,1.6,9,1.7,9,4.2,9
2017/11/19 8:11,1.6,9,1.6,9,2.9,9
2017/11/19 8:12,1.5,9,1.6,9,2,11
2017/11/19 8:13,1.5,10,1.6,9,3.1,10
2017/11/19 8:14,1.6,10,1.6,9,4.2,10
2017/11/19 8:15,1.6,10,1.6,9,2.7,11
2017/11/19 8:16,1.7,10,1.7,9,4.1,10
2017/11/19 8:17,1.8,10,1.8,10,3.1,8
2017/11/19 8:18,1.8,10,1.8,10,2.5,9
2017/11/19 8:19,1.7,10,1.8,10,2.4,9
2017/11/19 8:20,1.6,10,1.7,10,3.1,10
2017/11/19 8:21,1.5,11,1.6,10,2.2,11
2017/11/19 8:22,1.7,11,1.7,10,4.4,9
2017/11/19 8:23,1.8,11,1.8,10,4.4,10
2017/11/19 8:24,1.7,11,1.8,10,3.5,10
2017/11/19 8:25,1.8,10,1.8,10,5.8,10
2017/11/19 8:26,1.9,11,1.9,10,5.6,11
2017/11/19 8:27,2,10,2,10,3.9,10
2017/11/19 8:28,2,10,2,10,3,10
2017/11/19 8:29,2,10,2,10,3.1,10
2017/11/19 8:30,2.3,10,2.3,10,5.8,9
2017/11/19 8:31,2.6,10,2.6,10,5.4,10
2017/11/19 8:32,2.7,10,2.7,10,5.5,9
2017/11/19 8:33,2.7,10,2.8,10,4.8,10
2017/11/19 8:34,2.8,10,2.8,10,4.4,10
2017/11/19 8:35,2.7,10,2.8,10,3.3,11
2017/11/19 8:36,2.5,10,2.6,10,3.7,10
2017/11/19 8:37,2.4,11,2.5,10,2.2,13
2017/11/19 8:38,2.3,11,2.4,10,3.6,12
2017/11/19 8:39,2.5,11,2.5,10,4.5,10
2017/11/19 8:40,2.3,11,2.5,10,4.7,10
2017/11/19 8:41,2.2,11,2.3,10,4.2,11
2017/11/19 8:42,2,11,2.2,10,4.1,10
2017/11/19 8:43,2,10,2,10,6.7,10
2017/11/19 8:44,2.3,10,2.3,10,5.6,10
2017/11/19 8:45,2.5,10,2.5,10,6.3,10
2017/11/19 8:46,2.8,10,2.8,10,6.1,10
2017/11/19 8:47,3.1,10,3.1,10,6,10
2017/11/19 8:48,3.4,10,3.4,10,6.4,11
2017/11/19 8:49,3.6,10,3.6,10,6.3,10
2017/11/19 8:50,3.8,10,3.8,10,7,10
2017/11/19 8:51,4,10,4,10,6.7,11
2017/11/19 8:52,4.2,10,4.2,10,5.2,10
2017/11/19 8:53,4.2,10,4.3,10,5,11
2017/11/19 8:54,4,11,4.2,10,3.5,11
2017/11/19 8:55,3.8,11,4,10,4.9,10
2017/11/19 8:56,3.5,11,3.8,10,3.7,12
2017/11/19 8:57,3.3,11,3.5,10,4.2,11
2017/11/19 8:58,3.1,11,3.3,10,4.4,11
2017/11/19 8:59,2.8,11,3.1,10,3.8,10
2017/11/19 9:00,2.6,11,2.8,10,4.1,11
2017/11/19 9:01,2.4,11,2.6,10,5.6,10
2017/11/19 9:02,2.3,11,2.4,10,3.8,12
2017/11/19 9:03,2.3,11,2.3,10,4.9,10
2017/11/19 9:04,2.5,11,2.5,11,5.8,9
2017/11/19 9:05,2.6,11,2.6,11,5.8,10
2017/11/19 9:06,2.6,11,2.6,11,3.6,13
2017/11/19 9:07,2.6,11,2.6,11,4.5,10
2017/11/19 9:08,2.5,11,2.6,11,4.2,10
2017/11/19 9:09,2.6,11,2.6,11,6.7,10
2017/11/19 9:10,2.9,11,2.9,11,6.5,11
2017/11/19 9:11,2.9,11,2.9,11,6.2,9
2017/11/19 9:12,3.2,10,3.2,10,6.2,10
2017/11/19 9:13,3.2,10,3.3,10,5.4,10
2017/11/19 9:14,3.1,11,3.2,10,5.6,10
2017/11/19 9:15,3,11,3,10,3.7,10
2017/11/19 9:16,3.2,10,3.2,10,5.7,10
2017/11/19 9:17,3.3,10,3.3,10,5.6,11
2017/11/19 9:18,3.5,10,3.5,10,4.8,10
2017/11/19 9:19,3.4,10,3.5,10,4.5,9
2017/11/19 9:20,3.2,10,3.4,10,5.4,10
2017/11/19 9:21,3.1,10,3.2,10,4.8,10
2017/11/19 9:22,3,10,3.1,10,5.5,9
2017/11/19 9:23,2.8,10,3,10,3.5,9
2017/11/19 9:24,2.6,10,2.7,10,2.4,10
2017/11/19 9:25,2.7,10,2.7,10,6.5,13
2017/11/19 9:26,2.7,11,2.7,10,4.9,13
2017/11/19 9:27,2.6,11,2.7,10,3.6,13
2017/11/19 9:28,2.5,11,2.6,10,4.9,14
2017/11/19 9:29,2.5,11,2.5,10,5,13
2017/11/19 9:30,2.4,11,2.5,10,4.9,9
2017/11/19 9:31,2.2,11,2.4,10,2.9,8
2017/11/19 9:32,2.2,12,2.2,10,5.8,13
2017/11/19 9:33,2.4,12,2.4,10,4.9,13
2017/11/19 9:34,2.6,12,2.6,10,2.6,12
2017/11/19 9:35,2.3,12,2.6,10,1.9,13
2017/11/19 9:36,2,11,2.3,11,1,7
2017/11/19 9:37,1.7,12,1.9,11,1.8,14
2017/11/19 9:38,1.6,12,1.7,12,1.1,11
2017/11/19 9:39,1.5,11,1.6,12,1.6,9
2017/11/19 9:40,1.3,12,1.5,12,0.9,11
2017/11/19 9:41,1.4,12,1.4,12,3.5,11
2017/11/19 9:42,1.2,12,1.4,12,3.3,12
2017/11/19 9:43,1.1,11,1.2,12,3.5,11
2017/11/19 9:44,1.2,11,1.2,12,5.7,10
2017/11/19 9:45,1.4,11,1.4,12,3.6,10
2017/11/19 9:46,1.5,11,1.5,11,2.9,11
2017/11/19 9:47,1.6,11,1.6,12,2.2,11
2017/11/19 9:48,1.8,11,1.8,11,4.1,11
2017/11/19 9:49,1.8,12,1.8,11,1.6,14
2017/11/19 9:50,2,12,2,12,4.9,9
2017/11/19 9:51,2.1,11,2.1,12,6.9,11
2017/11/19 9:52,2.3,11,2.3,11,5.7,10
2017/11/19 9:53,2.3,11,2.3,11,5.8,10
2017/11/19 9:54,2.5,11,2.5,11,6.5,9
2017/11/19 9:55,2.7,11,2.7,11,6.5,10
2017/11/19 9:56,3,11,3,11,6.5,10
2017/11/19 9:57,3.3,11,3.3,11,6.9,11
2017/11/19 9:58,3.5,10,3.5,10,6.3,10
2017/11/19 9:59,3.8,10,3.8,10,6.3,10
2017/11/19 10:00,3.9,10,3.9,10,5.4,11
2017/11/19 10:01,3.8,11,3.9,10,4.1,12
2017/11/19 10:02,3.8,11,3.9,10,4.1,12
2017/11/19 10:03,4,11,4,11,5.7,12
2017/11/19 10:04,3.9,11,4,11,4.9,10
2017/11/19 10:05,3.8,11,3.9,11,6.1,10
2017/11/19 10:06,3.4,11,3.7,11,3.2,11
2017/11/19 10:07,3.2,11,3.4,11,5.2,12
2017/11/19 10:08,3.1,11,3.2,11,5.2,10
2017/11/19 10:09,2.9,11,3.1,11,4.5,9
2017/11/19 10:10,3.1,11,3.1,11,6.5,10
2017/11/19 10:11,3,10,3.1,11,3.9,9
2017/11/19 10:12,3,10,3,11,3.8,8
2017/11/19 10:13,2.7,10,2.9,11,2.2,10
2017/11/19 10:14,2.6,10,2.7,11,2.9,11
2017/11/19 10:15,2.3,10,2.6,11,2.5,10
2017/11/19 10:16,2.3,10,2.3,11,2.4,12
2017/11/19 10:17,2.2,10,2.3,11,1.8,8
2017/11/19 10:18,2,10,2.2,11,3.6,9
2017/11/19 10:19,1.9,10,2,11,2.7,8
2017/11/19 10:20,1.5,10,1.8,11,3.6,9
2017/11/19 10:21,1.6,10,1.6,10,4.9,10
2017/11/19 10:22,1.5,10,1.6,10,3,12
2017/11/19 10:23,1.5,11,1.5,10,2,13
2017/11/19 10:24,1.3,11,1.5,10,1.5,10
2017/11/19 10:25,1.3,11,1.3,10,2.6,16
2017/11/19 10:26,1.3,11,1.3,10,2.5,15
2017/11/19 10:27,1.3,11,1.3,10,4.5,9
2017/11/19 10:28,1.6,11,1.6,10,6.1,10
2017/11/19 10:29,1.8,11,1.8,10,7.5,9
2017/11/19 10:30,2,11,2,11,5.7,10
2017/11/19 10:31,1.9,12,2,11,3.8,13
2017/11/19 10:32,2,11,2,11,5.7,10
2017/11/19 10:33,2.2,11,2.2,11,5.6,9
2017/11/19 10:34,2.5,11,2.5,11,4.9,13
2017/11/19 10:35,2.6,11,2.6,11,6.2,9
2017/11/19 10:36,2.7,11,2.7,11,4.1,9
2017/11/19 10:37,2.9,11,2.9,11,5.1,10
2017/11/19 10:38,2.7,11,2.9,11,5.5,11